Flag for India Weather past 2 weeks in Kathua, Jammu and Kashmir, India

Now
81 °F

Passing clouds.


Feels Like: 81 °F
Forecast: 67 / 87 °F
Wind: 2 mph from North

Location: Amritsar Airport


UV Index: 7 (High)

Visibility: 4 mi


Pressure: 29.74 "Hg

Humidity: 51%

Dew point: 61 °F

Location of KathuaLocation

Historic Weather in Kathua

°F

Kathua temperature yesterday

Maximum temperature yesterday: 88 °F (at 2:00 PM)
Minimum temperature yesterday: 63 °F (at 5:30 AM)
Average temperature yesterday: 73 °F

Past Weeks' High & Low Weather Summary

 TemperatureHumidityPressure
High90 °F (Apr 12, 3:00 PM)100% (Apr 3, 3:30 AM)32.43 "Hg (Apr 3, 3:30 AM)
Low54 °F (Apr 3, 3:30 AM)21% (Apr 14, 1:00 PM)29.71 "Hg (Apr 17, 2:30 AM)
Average71 °F65%29.88 "Hg
* Reported Apr 2 4:30 PM — Apr 17 5:00 PM, Kathua, Weather by CustomWeather, © 2014

Note: Actual official high and low records may vary slightly from our data, if they occured in-between our weather recording intervals... More about our weather records

Advertising

Historic Weather Conditions — Data for Previous 24 hours

 ConditionsComfort  
Time TempWeatherWind HumidityBarometerVisibility
5:00 PM
Apr 17
82 °FScattered clouds.5 mph42%29.77 "Hg4 mi
4:30 PM82 °FScattered clouds.2 mph42%29.77 "Hg4 mi
4:00 PM81 °FScattered clouds.2 mph45%29.77 "Hg3 mi
3:30 PM81 °FScattered clouds.3 mph48%29.77 "Hg3 mi
3:00 PM81 °FScattered clouds.5 mph51%29.77 "Hg3 mi
2:30 PM81 °FScattered clouds.6 mph48%29.77 "Hg3 mi
2:00 PM81 °FScattered clouds.9 mph48%29.80 "Hg3 mi
1:30 PM79 °FScattered clouds.9 mph51%29.80 "Hg3 mi
1:00 PM79 °FScattered clouds.8 mph54%29.83 "Hg3 mi
12:30 PM77 °FScattered clouds.10 mph54%29.83 "Hg3 mi
12:00 PM75 °FScattered clouds.10 mph61%29.83 "Hg3 mi
11:00 AM70 °FFog.8 mph73%29.83 "Hg3 mi
10:30 AM68 °FFog.9 mph78%29.80 "Hg2 mi
8:30 AM64 °FThunderstorms. More clouds than sun.3 mph88%29.83 "Hg2 mi
8:00 AM63 °FLight rain. More clouds than sun.No wind94%29.86 "Hg2 mi
7:30 AM63 °FLight rain. More clouds than sun.No wind94%29.86 "Hg2 mi
7:00 AM63 °FLight rain. More clouds than sun.No wind94%29.83 "Hg2 mi
6:30 AM63 °FLight rain. More clouds than sun.No wind94%29.86 "Hg2 mi
6:00 AM64 °FThunderstorms. Partly cloudy.10 mph83%29.86 "Hg2 mi
5:00 AM63 °FThunderstorms. Mostly cloudy.17 mph88%29.86 "Hg2 mi
4:30 AM63 °FThunderstorms. Mostly cloudy.21 mph88%29.86 "Hg2 mi
3:30 AM66 °FThunderstorms. Mostly cloudy.2 mph73%29.77 "Hg2 mi
3:00 AM64 °FFog.9 mph78%29.71 "Hg2 mi
2:30 AM64 °FFog.6 mph78%29.71 "Hg2 mi
2:00 AM63 °FFog.3 mph88%29.74 "Hg2 mi
1:30 AM64 °FFog.No wind83%29.77 "Hg2 mi
1:00 AM64 °FFog.2 mph78%29.77 "Hg2 mi
12:30 AM64 °FFog.No wind78%29.77 "Hg2 mi
12:00 AM64 °FFog.No wind78%29.80 "Hg2 mi
11:30 PM
Apr 16
66 °FFog.2 mph78%29.80 "Hg2 mi
11:00 PM66 °FPassing clouds.No wind78%29.80 "Hg3 mi
10:30 PM66 °FPartly cloudy.5 mph78%29.80 "Hg3 mi
10:00 PM66 °FPartly cloudy.6 mph78%29.80 "Hg3 mi
9:30 PM68 °FPartly cloudy.6 mph69%29.80 "Hg3 mi
9:00 PM66 °FMostly cloudy.7 mph73%29.80 "Hg3 mi
8:30 PM66 °FMostly cloudy.6 mph73%29.80 "Hg3 mi
8:00 PM68 °FMostly cloudy.9 mph69%29.80 "Hg3 mi
7:30 PM72 °FPassing clouds.12 mph61%29.80 "Hg2 mi
6:30 PM79 °FScattered clouds.3 mph51%29.77 "Hg2 mi
Weather by CustomWeather, © 2014

See weather overview